Tracking 27126 objects as of 30-Mar-2023
HD Live streaming from Space Station
objects crossing your sky now

TES

Track TES now!
10-day predictions
TES is classified as:


NORAD ID: 26957
Int'l Code: 2001-049A
Perigee: 495.8 km
Apogee: 541.8 km
Inclination: 97.9 °
Period: 94.9 minutes
Semi major axis: 6889 km
RCS: 3.0893 m2 (large)
Launch date: October 22, 2001
Source: India (IND)
Launch site: SRIHARIKOTA (SRI)

Takes high resolution photos of anything over 3 feet; called prototype for India's "spy satellite."
Your satellite tracking list
Your tracking list is empty




NASA's NSSDC Master Catalog

Two Line Element Set (TLE):
1 26957U 01049A   23088.71944011  .00011318  00000-0  55076-3 0  9991
2 26957  97.8591 247.7295 0033347 352.8133   7.2581 15.18073586177474
Source of the keplerian elements: AFSPC